Home > Weather > Hudson > Past weeks

Flag for USA Past Weather in Hudson, Wisconsin, USA — Yesterday and Last 2 Weeks

Now
69 °F

Sunny.


Feels Like: 69 °F
Forecast: 52 / 74 °F
Wind: 14 mph from North

Location: St. Paul Downtown Holman Field

Current Time: Jun 30, 2016 at 9:45:28 PM

Latest Report: Jun 30, 2016 at 8:53 PM


Visibility: 10 mi

Pressure: 30.00 "Hg

Humidity: 53%

Dew Point: 51 °F

Location of HudsonLocation

Past Weather in Hudson — Graph

°F

Hudson Temperature Yesterday

Maximum temperature yesterday: 79 °F (at 2:53 PM)
Minimum temperature yesterday: 56 °F (at 4:53 AM)
Average temperature yesterday: 69 °F

High & Low Weather Summary for the Past Weeks

 TemperatureHumidityPressure
High95 °F (Jun 25, 3:53 PM)100% (Jun 24, 6:53 AM)30.27 "Hg (Jun 24, 6:53 AM)
Low56 °F (Jun 29, 4:53 AM)29% (Jun 26, 5:53 PM)29.66 "Hg (Jun 25, 4:53 PM)
Average73 °F64%29.99 "Hg
* Reported Jun 15 7:53 PM — Jun 30 7:53 PM, Hudson, Weather by CustomWeather, © 2016

Note: Actual official high and low records may vary slightly from our data, if they occured in-between our weather recording intervals... More about our weather records

Advertising

Hudson Weather History for the Previous 24 Hours

Scroll right to see more
 ConditionsComfort  
Time TempWeatherWind HumidityBarometerVisibility
7:53 PM
Thu, Jun 30
72 °FSunny.15 mph48%29.98 "Hg10 mi
6:53 PM73 °FScattered clouds.15 mph50%29.96 "Hg10 mi
5:53 PM76 °FScattered clouds.21 mph43%29.94 "Hg10 mi
4:53 PM76 °FBroken clouds.13 mph50%29.93 "Hg10 mi
3:53 PM78 °FSunny.14 mph48%29.93 "Hg10 mi
2:53 PM76 °FPassing clouds.15 mph58%29.93 "Hg10 mi
1:53 PM73 °FScattered clouds.10 mph66%29.94 "Hg10 mi
12:53 PM68 °FPartly sunny.9 mph76%29.95 "Hg10 mi
11:53 AM70 °FThundershowers. Cloudy.17 mph66%29.96 "Hg10 mi
11:01 AM68 °FStrong thunderstorms. Mostly cloudy.14 mph84%29.96 "Hg1 mi
10:59 AM70 °FStrong thunderstorms. Mostly cloudy.18 mph79%29.96 "Hg1 mi
9:53 AM72 °FPartly sunny.7 mph78%29.94 "Hg10 mi
8:53 AM69 °FOvercast.7 mph87%29.95 "Hg10 mi
7:53 AM65 °FMostly cloudy.5 mph85%29.94 "Hg10 mi
6:59 AM64 °FThunderstorms. Mostly cloudy.9 mph75%29.95 "Hg2 mi
5:53 AM62 °FPassing clouds.3 mph90%29.95 "Hg10 mi
4:53 AM61 °FPassing clouds.No wind87%29.94 "Hg10 mi
3:53 AM62 °FClear.3 mph83%29.95 "Hg10 mi
2:53 AM63 °FClear.No wind84%29.95 "Hg10 mi
1:53 AM65 °FClear.No wind78%29.96 "Hg10 mi
12:53 AM66 °FPassing clouds.3 mph70%29.98 "Hg10 mi
11:53 PM
Wed, Jun 29
67 °FClear.3 mph71%29.99 "Hg10 mi
10:53 PM67 °FClear.6 mph71%29.99 "Hg10 mi
9:53 PM68 °FSunny.5 mph65%30.00 "Hg10 mi
Weather by CustomWeather, © 2016

See weather overviewHow to use our weather pages